Time,TemperatureF,DewpointF,PressureIn,WindDirection,WindDirectionDegrees,WindSpeedMPH,WindSpeedGustMPH,Humidity,HourlyPrecipIn,Conditions,Clouds,dailyrainin,SoftwareType,DateUTC
2013-04-10 00:03:00,71.6,58.0,30.07,ENE,78,0.0,4.0,63,0.00,,,0.00,weatherlink.com 1.10,2013-04-10 04:03:00,
2013-04-10 00:18:00,71.2,58.0,30.07,SSW,195,0.0,3.0,64,0.00,,,0.00,weatherlink.com 1.10,2013-04-10 04:18:00,
2013-04-10 00:33:00,70.2,59.0,30.07,SSW,200,0.0,3.0,67,0.00,,,0.00,weatherlink.com 1.10,2013-04-10 04:33:00,
2013-04-10 00:48:00,69.0,58.0,30.06,South,176,1.0,2.0,69,0.00,,,0.00,weatherlink.com 1.10,2013-04-10 04:48:00,
2013-04-10 01:03:00,68.5,59.0,30.06,SE,139,1.0,5.0,71,0.00,,,0.00,weatherlink.com 1.10,2013-04-10 05:03:00,
2013-04-10 01:18:00,68.1,59.0,30.06,SE,146,2.0,3.0,72,0.00,,,0.00,weatherlink.com 1.10,2013-04-10 05:18:00,
2013-04-10 01:33:00,67.7,59.0,30.05,South,173,1.0,6.0,73,0.00,,,0.00,weatherlink.com 1.10,2013-04-10 05:33:00,
2013-04-10 01:48:00,67.3,59.0,30.05,SSE,167,2.0,4.0,74,0.00,,,0.00,weatherlink.com 1.10,2013-04-10 05:48:00,
2013-04-10 02:03:00,67.0,59.0,30.05,SE,129,1.0,4.0,75,0.00,,,0.00,weatherlink.com 1.10,2013-04-10 06:03:00,
2013-04-10 02:18:00,66.6,59.0,30.05,South,184,2.0,5.0,76,0.00,,,0.00,weatherlink.com 1.10,2013-04-10 06:18:00,
2013-04-10 02:33:00,66.1,59.0,30.05,SSE,158,2.0,3.0,77,0.00,,,0.00,weatherlink.com 1.10,2013-04-10 06:33:00,
2013-04-10 02:48:00,65.3,59.0,30.04,SSE,160,0.0,1.0,79,0.00,,,0.00,weatherlink.com 1.10,2013-04-10 06:48:00,
2013-04-10 03:03:00,64.6,59.0,30.05,SSE,160,1.0,4.0,81,0.00,,,0.00,weatherlink.com 1.10,2013-04-10 07:03:00,
2013-04-10 03:18:00,64.3,58.0,30.05,South,176,0.0,4.0,81,0.00,,,0.00,weatherlink.com 1.10,2013-04-10 07:18:00,
2013-04-10 03:33:00,64.3,59.0,30.05,SE,142,1.0,3.0,82,0.00,,,0.00,weatherlink.com 1.10,2013-04-10 07:33:00,
2013-04-10 03:48:00,64.5,59.0,30.05,WNW,297,0.0,3.0,81,0.00,,,0.00,weatherlink.com 1.10,2013-04-10 07:48:00,
2013-04-10 04:03:00,65.2,59.0,30.05,South,174,0.0,4.0,80,0.00,,,0.00,weatherlink.com 1.10,2013-04-10 08:03:00,
2013-04-10 04:18:00,65.2,59.0,30.05,SSW,195,3.0,4.0,81,0.00,,,0.00,weatherlink.com 1.10,2013-04-10 08:18:00,
2013-04-10 04:34:00,65.3,59.0,30.05,SE,125,1.0,3.0,81,0.00,,,0.00,weatherlink.com 1.10,2013-04-10 08:34:00,
2013-04-10 04:48:00,65.3,59.0,30.06,ESE,122,1.0,5.0,81,0.00,,,0.00,weatherlink.com 1.10,2013-04-10 08:48:00,
2013-04-10 05:03:00,65.0,59.0,30.06,WSW,242,0.0,4.0,82,0.00,,,0.00,weatherlink.com 1.10,2013-04-10 09:03:00,
2013-04-10 05:19:00,64.9,59.0,30.06,ESE,122,0.0,4.0,82,0.00,,,0.00,weatherlink.com 1.10,2013-04-10 09:19:00,
2013-04-10 05:34:00,64.6,59.0,30.06,SSE,152,0.0,4.0,83,0.00,,,0.00,weatherlink.com 1.10,2013-04-10 09:34:00,
2013-04-10 05:49:00,64.4,60.0,30.07,WNW,286,0.0,5.0,84,0.00,,,0.00,weatherlink.com 1.10,2013-04-10 09:49:00,
2013-04-10 06:04:00,64.4,60.0,30.07,NW,304,2.0,2.0,85,0.00,,,0.00,weatherlink.com 1.10,2013-04-10 10:04:00,
2013-04-10 06:19:00,64.4,60.0,30.07,NNW,333,0.0,3.0,85,0.00,,,0.00,weatherlink.com 1.10,2013-04-10 10:19:00,
2013-04-10 06:34:00,64.5,60.0,30.07,SE,136,1.0,6.0,85,0.00,,,0.00,weatherlink.com 1.10,2013-04-10 10:34:00,
2013-04-10 06:49:00,64.4,60.0,30.07,NW,312,1.0,3.0,85,0.00,,,0.00,weatherlink.com 1.10,2013-04-10 10:49:00,
2013-04-10 07:04:00,64.3,60.0,30.07,NW,321,2.0,2.0,86,0.00,,,0.00,weatherlink.com 1.10,2013-04-10 11:04:00,
2013-04-10 07:19:00,64.2,60.0,30.07,WNW,294,0.0,4.0,86,0.00,,,0.00,weatherlink.com 1.10,2013-04-10 11:19:00,
2013-04-10 07:34:00,64.4,60.0,30.08,NNW,332,0.0,2.0,86,0.00,,,0.00,weatherlink.com 1.10,2013-04-10 11:34:00,
2013-04-10 07:49:00,65.0,60.0,30.07,NNW,344,2.0,4.0,85,0.00,,,0.00,weatherlink.com 1.10,2013-04-10 11:49:00,
2013-04-10 08:04:00,65.7,61.0,30.08,WNW,301,2.0,4.0,84,0.00,,,0.00,weatherlink.com 1.10,2013-04-10 12:04:00,
2013-04-10 08:19:00,67.0,61.0,30.09,NW,309,1.0,3.0,82,0.00,,,0.00,weatherlink.com 1.10,2013-04-10 12:19:00,
2013-04-10 08:34:00,67.8,61.0,30.09,NW,326,1.0,5.0,80,0.00,,,0.00,weatherlink.com 1.10,2013-04-10 12:34:00,
2013-04-10 08:49:00,68.8,62.0,30.08,NNW,332,4.0,5.0,79,0.00,,,0.00,weatherlink.com 1.10,2013-04-10 12:49:00,
2013-04-10 09:04:00,70.0,62.0,30.08,WSW,257,2.0,5.0,76,0.00,,,0.00,weatherlink.com 1.10,2013-04-10 13:04:00,
2013-04-10 09:19:00,71.3,62.0,30.09,SE,144,2.0,5.0,73,0.00,,,0.00,weatherlink.com 1.10,2013-04-10 13:19:00,
2013-04-10 09:34:00,71.9,62.0,30.09,WNW,292,0.0,6.0,72,0.00,,,0.00,weatherlink.com 1.10,2013-04-10 13:34:00,
2013-04-10 09:49:00,72.9,63.0,30.09,WNW,297,2.0,6.0,70,0.00,,,0.00,weatherlink.com 1.10,2013-04-10 13:49:00,
2013-04-10 10:04:00,73.9,63.0,30.09,NNW,330,2.0,6.0,68,0.00,,,0.00,weatherlink.com 1.10,2013-04-10 14:04:00,
2013-04-10 10:19:00,75.5,64.0,30.08,SSE,159,2.0,5.0,67,0.00,,,0.00,weatherlink.com 1.10,2013-04-10 14:19:00,
2013-04-10 10:34:00,76.3,63.0,30.08,NE,47,0.0,8.0,63,0.00,,,0.00,weatherlink.com 1.10,2013-04-10 14:34:00,
2013-04-10 10:49:00,77.6,63.0,30.08,West,267,0.0,5.0,61,0.00,,,0.00,weatherlink.com 1.10,2013-04-10 14:49:00,
2013-04-10 11:04:00,78.4,63.0,30.08,SW,215,1.0,6.0,60,0.00,,,0.00,weatherlink.com 1.10,2013-04-10 15:04:00,
2013-04-10 11:19:00,79.3,63.0,30.08,SSE,154,2.0,8.0,57,0.00,,,0.00,weatherlink.com 1.10,2013-04-10 15:19:00,
2013-04-10 11:34:00,80.6,63.0,30.07,SSE,167,2.0,4.0,55,0.00,,,0.00,weatherlink.com 1.10,2013-04-10 15:34:00,
2013-04-10 11:49:00,81.4,63.0,30.07,SSE,160,1.0,6.0,54,0.00,,,0.00,weatherlink.com 1.10,2013-04-10 15:49:00,
2013-04-10 12:04:00,82.0,63.0,30.07,East,83,0.0,7.0,52,0.00,,,0.00,weatherlink.com 1.10,2013-04-10 16:04:00,
2013-04-10 12:19:00,83.6,62.0,30.07,NW,321,3.0,8.0,49,0.00,,,0.00,weatherlink.com 1.10,2013-04-10 16:19:00,
2013-04-10 12:34:00,83.7,62.0,30.06,SE,139,2.0,8.0,48,0.00,,,0.00,weatherlink.com 1.10,2013-04-10 16:34:00,
2013-04-10 12:49:00,83.6,61.0,30.05,East,89,1.0,7.0,46,0.00,,,0.00,weatherlink.com 1.10,2013-04-10 16:49:00,
2013-04-10 13:04:00,84.3,61.0,30.05,WSW,253,0.0,8.0,46,0.00,,,0.00,weatherlink.com 1.10,2013-04-10 17:04:00,
2013-04-10 13:19:00,85.3,62.0,30.04,South,184,1.0,6.0,45,0.00,,,0.00,weatherlink.com 1.10,2013-04-10 17:19:00,
2013-04-10 13:34:00,84.7,60.0,30.04,SSW,197,2.0,10.0,44,0.00,,,0.00,weatherlink.com 1.10,2013-04-10 17:34:00,
2013-04-10 13:49:00,85.9,62.0,30.03,SSE,158,2.0,8.0,44,0.00,,,0.00,weatherlink.com 1.10,2013-04-10 17:49:00,
2013-04-10 14:05:00,86.1,61.0,30.03,SW,231,2.0,10.0,43,0.00,,,0.00,weatherlink.com 1.10,2013-04-10 18:05:00,
2013-04-10 14:20:00,86.5,61.0,30.02,SW,231,1.0,7.0,42,0.00,,,0.00,weatherlink.com 1.10,2013-04-10 18:20:00,
2013-04-10 14:35:00,87.2,61.0,30.02,West,259,3.0,7.0,42,0.00,,,0.00,weatherlink.com 1.10,2013-04-10 18:35:00,
2013-04-10 14:50:00,87.4,62.0,30.01,WNW,293,0.0,10.0,42,0.00,,,0.00,weatherlink.com 1.10,2013-04-10 18:50:00,
2013-04-10 15:05:00,87.3,59.0,30.00,SE,142,0.0,12.0,39,0.00,,,0.00,weatherlink.com 1.10,2013-04-10 19:05:00,
2013-04-10 15:20:00,88.0,61.0,29.99,SE,139,4.0,6.0,40,0.00,,,0.00,weatherlink.com 1.10,2013-04-10 19:20:00,
2013-04-10 15:35:00,88.4,60.0,29.98,West,281,3.0,6.0,39,0.00,,,0.00,weatherlink.com 1.10,2013-04-10 19:35:00,
2013-04-10 15:50:00,87.4,60.0,29.97,SSW,205,6.0,8.0,39,0.00,,,0.00,weatherlink.com 1.10,2013-04-10 19:50:00,
2013-04-10 16:05:00,87.5,60.0,29.96,ESE,103,2.0,7.0,40,0.00,,,0.00,weatherlink.com 1.10,2013-04-10 20:05:00,
2013-04-10 16:20:00,88.2,61.0,29.96,SSW,203,2.0,5.0,40,0.00,,,0.00,weatherlink.com 1.10,2013-04-10 20:20:00,
2013-04-10 16:35:00,87.8,61.0,29.96,NNW,335,3.0,12.0,40,0.00,,,0.00,weatherlink.com 1.10,2013-04-10 20:35:00,
2013-04-10 16:50:00,86.6,60.0,29.95,SSE,160,6.0,13.0,40,0.00,,,0.00,weatherlink.com 1.10,2013-04-10 20:50:00,
2013-04-10 17:05:00,86.5,59.0,29.95,SE,132,3.0,12.0,40,0.00,,,0.00,weatherlink.com 1.10,2013-04-10 21:05:00,
2013-04-10 17:20:00,86.2,59.0,29.95,SSE,165,7.0,11.0,40,0.00,,,0.00,weatherlink.com 1.10,2013-04-10 21:20:00,
2013-04-10 17:35:00,86.1,59.0,29.95,South,179,1.0,7.0,40,0.00,,,0.00,weatherlink.com 1.10,2013-04-10 21:35:00,
2013-04-10 17:50:00,85.5,59.0,29.95,NNW,344,4.0,12.0,40,0.00,,,0.00,weatherlink.com 1.10,2013-04-10 21:50:00,
2013-04-10 18:20:00,84.8,59.0,29.95,SE,139,1.0,9.0,42,0.00,,,0.00,weatherlink.com 1.10,2013-04-10 22:20:00,
2013-04-10 18:35:00,84.3,59.0,29.94,SSE,157,1.0,9.0,43,0.00,,,0.00,weatherlink.com 1.10,2013-04-10 22:35:00,
2013-04-10 18:50:00,83.8,58.0,29.94,WSW,256,4.0,9.0,42,0.00,,,0.00,weatherlink.com 1.10,2013-04-10 22:50:00,
2013-04-10 19:05:00,83.4,59.0,29.93,WNW,298,3.0,7.0,44,0.00,,,0.00,weatherlink.com 1.10,2013-04-10 23:05:00,
2013-04-10 19:20:00,82.7,60.0,29.93,SE,138,1.0,5.0,47,0.00,,,0.00,weatherlink.com 1.10,2013-04-10 23:20:00,
2013-04-10 19:35:00,81.8,61.0,29.93,SW,229,2.0,5.0,49,0.00,,,0.00,weatherlink.com 1.10,2013-04-10 23:35:00,
2013-04-10 19:50:00,81.0,61.0,29.93,South,186,1.0,6.0,50,0.00,,,0.00,weatherlink.com 1.10,2013-04-10 23:50:00,
2013-04-10 20:05:00,80.5,61.0,29.93,SSE,160,1.0,7.0,51,0.00,,,0.00,weatherlink.com 1.10,2013-04-11 00:05:00,
2013-04-10 20:20:00,79.6,61.0,29.93,SSE,162,1.0,3.0,53,0.00,,,0.00,weatherlink.com 1.10,2013-04-11 00:20:00,
2013-04-10 20:35:00,78.5,61.0,29.94,SE,129,0.0,5.0,55,0.00,,,0.00,weatherlink.com 1.10,2013-04-11 00:35:00,
2013-04-10 20:50:00,77.9,61.0,29.94,SSW,194,1.0,4.0,57,0.00,,,0.00,weatherlink.com 1.10,2013-04-11 00:50:00,
2013-04-10 21:05:00,77.4,62.0,29.95,SE,134,0.0,4.0,59,0.00,,,0.00,weatherlink.com 1.10,2013-04-11 01:05:00,
2013-04-10 21:20:00,76.9,62.0,29.95,SW,214,2.0,5.0,60,0.00,,,0.00,weatherlink.com 1.10,2013-04-11 01:20:00,
2013-04-10 21:35:00,76.5,61.0,29.95,South,170,0.0,5.0,60,0.00,,,0.00,weatherlink.com 1.10,2013-04-11 01:35:00,
2013-04-10 21:50:00,76.1,62.0,29.96,SE,131,0.0,4.0,61,0.00,,,0.00,weatherlink.com 1.10,2013-04-11 01:50:00,
2013-04-10 22:05:00,75.8,62.0,29.95,ENE,62,1.0,8.0,62,0.00,,,0.00,weatherlink.com 1.10,2013-04-11 02:05:00,
2013-04-10 22:20:00,75.3,62.0,29.95,SSW,205,0.0,5.0,63,0.00,,,0.00,weatherlink.com 1.10,2013-04-11 02:20:00,
2013-04-10 22:35:00,75.1,62.0,29.95,NW,323,0.0,7.0,63,0.00,,,0.00,weatherlink.com 1.10,2013-04-11 02:35:00,
2013-04-10 22:50:00,74.8,62.0,29.95,SSE,150,0.0,5.0,64,0.00,,,0.00,weatherlink.com 1.10,2013-04-11 02:50:00,
2013-04-10 23:05:00,74.5,61.0,29.95,South,189,2.0,6.0,64,0.00,,,0.00,weatherlink.com 1.10,2013-04-11 03:05:00,
2013-04-10 23:20:00,73.9,62.0,29.95,SE,139,4.0,8.0,66,0.00,,,0.00,weatherlink.com 1.10,2013-04-11 03:20:00,
2013-04-10 23:35:00,72.9,62.0,29.95,SSE,153,4.0,9.0,69,0.00,,,0.00,weatherlink.com 1.10,2013-04-11 03:35:00,
2013-04-10 23:50:00,72.2,62.0,29.95,SSW,194,2.0,10.0,71,0.00,,,0.00,weatherlink.com 1.10,2013-04-11 03:50:00,